BERESHEET (44049 NORAD) Tracking and Keplerian Element Data

This shows tracking and keplerian element data for the satellite.

Feedback or suggestion? Click here.




ElementValue
Catalog44049
NameBERESHEET
Epoch Orbit12
Epoch Day79.85416667
Epoch Year2019
RAAN10.5463
Inclination25.0088
Eccentricity0.9637541
Argument of Perigee181.7585
Mean Anonmoly43.0154
Mean Motion0.08972053
Decay Rate-0.00057171
L11 44049U 19009B 19079.85416667 -.00057171 00000-0 00000+0 0 9990
L22 44049 25.0088 10.5463 9637541 181.7585 43.0154 0.08972053 129

Live tracking and technical data element details for BERESHEET (NORAD 44049). BERESHEET can be tracked NOW for your location showing map with azimuth and elevation plus other details from your city location.

Track the satellite on the map from your city or location and see movement details for azimuth, elevation, latitude, longitude, range, height, and movement on the map or in text.







IsCatalogInMostPopularTable: catalog: 44049, numindb: 28
Update: records affected: 1



GetName: 44049 BERESHEET

Hit Count: updated at: Sat, 23 Mar 2019 00:54:21 GMT